Weather History for Drummond Island, MI

Change the Weather History Date:

Friday, May 10, 2013

  Actual Average (KCIU) Record (KCIU)
Temperature  
Mean Temperature 38 °F -  
Max Temperature 42 °F 61 °F 79 °F (1993)
Min Temperature 34 °F 36 °F 19 °F (1983)
Degree Days  
Heating Degree Days 27    
Moisture  
Dew Point 34 °F    
Average Humidity 85    
Maximum Humidity 99    
Minimum Humidity 66    
Precipitation  
Precipitation 0.00 in - - ()
Sea Level Pressure  
Sea Level Pressure 30.00 in    
Wind  
Wind Speed 7 mph (NNE)    
Max Wind Speed 9 mph    
Max Gust Speed 21 mph    
Visibility 8 miles    
Events Rain    
Averages and records for this station are not official NWS values.
T = Trace of Precipitation, MM = Missing Value Source: NWS Daily Summary

Daily Weather History Graph

Daily Weather History Graph

Search for Another Location

Airport:

Trip Planner

Search our weather history database for the weather conditions in past years. The results will help you decide how hot, cold, wet, or windy it might be!

Date:

Astronomy

May. 10, 2013 Rise Set
Actual Time 6:08 AM EDT 8:54 PM EDT
Civil Twilight 5:34 AM EDT 9:29 PM EDT
Nautical Twilight 4:50 AM EDT 10:13 PM EDT
Astronomical Twilight 3:59 AM EDT 11:04 PM EDT
Moon 6:32 AM EDT (5/10) 9:44 PM EDT (5/10)
Length of Visible Light 15h 54m
Length of Day
14h 46m
New Moon, 0% of the Moon is Illuminated
May 10
New Moon
May 18
First Quarter
May 25
Full
May 31
Last Quarter
Jun 8
New

Hourly Weather History & Observations

Time (EDT) Temp. Windchill Dew Point Humidity Pressure Visibility Wind Dir Wind Speed Gust Speed Precip Events Conditions
12:16 AM 42.4 °F 37.5 °F 35.2 °F 76% 30.07 in 10.0 mi NNE 8.1 mph - N/A Rain Light Rain
12:36 AM 41.9 °F 36.9 °F 35.1 °F 77% 30.07 in 10.0 mi NNE 8.1 mph - N/A Rain Light Rain
1:16 AM 40.1 °F 35.3 °F 36.1 °F 86% 30.08 in 10.0 mi NNE 6.9 mph - N/A Rain Light Rain
1:56 AM 38.7 °F 32.4 °F 36.1 °F 91% 30.07 in 10.0 mi NNE 9.2 mph - N/A Rain Light Rain
2:16 AM 38.3 °F 33.2 °F 35.8 °F 91% 30.06 in 10.0 mi NNE 6.9 mph 18.4 mph N/A Rain Light Rain
2:35 AM 37.6 °F 32.3 °F 35.6 °F 93% 30.06 in 7.0 mi NNE 6.9 mph 17.3 mph N/A Rain Light Rain
2:56 AM 36.7 °F 29.9 °F 34.9 °F 93% 30.06 in 7.0 mi NNE 9.2 mph 18.4 mph N/A Rain Light Rain
3:15 AM 36.0 °F 30.3 °F 34.7 °F 95% 30.06 in 7.0 mi NNE 6.9 mph 16.1 mph N/A Rain Light Rain
3:35 AM 35.6 °F 30.7 °F 34.3 °F 95% 30.06 in 5.0 mi NNE 5.8 mph - N/A Rain Light Rain
3:56 AM 35.6 °F 29.2 °F 34.3 °F 95% 30.06 in 5.0 mi NNE 8.1 mph 16.1 mph N/A Rain Rain
4:15 AM 35.1 °F 30.1 °F 34.0 °F 96% 30.06 in 5.0 mi NNE 5.8 mph 16.1 mph N/A Rain Rain
4:35 AM 34.9 °F 29.0 °F 34.0 °F 97% 30.06 in 5.0 mi NNE 6.9 mph - N/A Rain Rain
4:55 AM 34.9 °F 27.7 °F 34.0 °F 97% 30.06 in 5.0 mi NE 9.2 mph - N/A Rain Rain
5:15 AM 34.9 °F 30.8 °F 34.2 °F 97% 30.05 in 4.0 mi NNE 4.6 mph - N/A Rain Rain
5:36 AM 34.5 °F 27.3 °F 33.8 °F 97% 30.05 in 4.0 mi NNE 9.2 mph - N/A Rain Rain
5:55 AM 34.2 °F 29.0 °F 33.4 °F 97% 30.04 in 4.0 mi NNE 5.8 mph - N/A Rain Rain
6:15 AM 34.2 °F 27.5 °F 33.4 °F 97% 30.04 in 4.0 mi NE 8.1 mph - N/A Rain Rain
6:36 AM 34.2 °F 26.8 °F 33.4 °F 97% 30.04 in 3.0 mi NE 9.2 mph 16.1 mph N/A Rain Rain
6:55 AM 34.3 °F 27.7 °F 33.8 °F 98% 30.03 in 4.0 mi NNE 8.1 mph 20.7 mph N/A Rain Rain
7:16 AM 34.7 °F 28.1 °F 33.8 °F 97% 30.03 in 5.0 mi NE 8.1 mph - N/A Rain Light Rain
7:36 AM 34.7 °F 28.1 °F 34.2 °F 98% 30.03 in 4.0 mi NNE 8.1 mph - N/A Rain Light Rain
8:16 AM 35.6 °F 29.2 °F 34.9 °F 97% 30.02 in 4.0 mi NE 8.1 mph - N/A Rain Rain
8:36 AM 35.6 °F 28.6 °F 35.1 °F 98% 30.02 in 5.0 mi NE 9.2 mph - N/A Rain Light Rain
9:16 AM 35.6 °F 31.7 °F 34.9 °F 97% 30.01 in 5.0 mi NNE 4.6 mph - N/A Rain Light Rain
9:35 AM 35.1 °F 30.1 °F 34.7 °F 99% 30.02 in 7.0 mi NNE 5.8 mph 16.1 mph N/A   Drizzle
9:55 AM 35.6 °F 29.9 °F 34.9 °F 97% 30.02 in 10.0 mi North 6.9 mph - N/A   Light Drizzle
10:15 AM 35.6 °F 31.7 °F 35.1 °F 98% 30.02 in 10.0 mi NNE 4.6 mph - N/A Rain Light Rain
10:35 AM 35.6 °F 31.7 °F 35.1 °F 98% 30.02 in 10.0 mi NNE 4.6 mph 17.3 mph N/A Rain Light Rain
10:56 AM 35.6 °F 28.6 °F 34.5 °F 96% 30.02 in 7.0 mi North 9.2 mph 16.1 mph N/A Rain Light Rain
11:15 AM 35.8 °F 29.4 °F 34.9 °F 97% 30.02 in 7.0 mi NE 8.1 mph - N/A Rain Rain
11:35 AM 36.0 °F 29.6 °F 34.9 °F 96% 30.02 in 5.0 mi NNE 8.1 mph - N/A Rain Light Rain
11:56 AM 35.8 °F 28.8 °F 34.7 °F 96% 30.02 in 10.0 mi NNE 9.2 mph - N/A Rain Rain
12:15 PM 36.5 °F 31.0 °F 35.6 °F 97% 30.02 in 10.0 mi NE 6.9 mph - N/A Rain Light Rain
12:36 PM 36.7 °F 31.2 °F 35.2 °F 95% 30.01 in 10.0 mi NNE 6.9 mph - N/A   Light Drizzle
1:15 PM 37.2 °F 32.6 °F 35.4 °F 93% 30.01 in 10.0 mi NNE 5.8 mph - N/A   Light Drizzle
1:36 PM 37.4 °F 32.8 °F 35.6 °F 93% 30.01 in 10.0 mi NNE 5.8 mph - N/A   Overcast
1:55 PM 38.5 °F 34.1 °F 36.3 °F 92% 30.00 in 10.0 mi NNE 5.8 mph - N/A   Overcast
2:15 PM 39.4 °F 34.5 °F 36.1 °F 88% 30.00 in 10.0 mi NNE 6.9 mph - N/A   Overcast
2:36 PM 39.6 °F 34.7 °F 35.8 °F 86% 30.00 in 10.0 mi NNE 6.9 mph - N/A   Overcast
2:55 PM 39.7 °F 36.5 °F 35.6 °F 85% 30.00 in 10.0 mi North 4.6 mph - N/A   Overcast
3:15 PM 40.8 °F 36.2 °F 36.5 °F 85% 30.00 in 10.0 mi NNE 6.9 mph - N/A   Overcast
3:36 PM 41.2 °F 36.6 °F 36.1 °F 82% 29.99 in 10.0 mi NNE 6.9 mph - N/A   Overcast
3:55 PM 41.4 °F 37.6 °F 36.0 °F 81% 29.99 in 10.0 mi NNE 5.8 mph - N/A   Overcast
4:16 PM 42.1 °F 37.1 °F 36.1 °F 79% 29.98 in 10.0 mi NNE 8.1 mph - N/A   Overcast
4:36 PM 42.3 °F 37.9 °F 35.6 °F 77% 29.98 in 10.0 mi NNE 6.9 mph - N/A   Overcast
4:55 PM 42.8 °F 39.3 °F 35.8 °F 76% 29.97 in 10.0 mi NNE 5.8 mph - N/A   Overcast
5:16 PM 42.3 °F 36.8 °F 35.1 °F 76% 29.97 in 10.0 mi NE 9.2 mph - N/A   Overcast
5:35 PM 41.9 °F 36.9 °F 34.5 °F 75% 29.97 in 10.0 mi NNE 8.1 mph - N/A   Overcast
5:55 PM 41.4 °F 37.6 °F 34.0 °F 75% 29.96 in 10.0 mi NNE 5.8 mph - N/A   Overcast
6:35 PM 41.5 °F 38.6 °F 32.5 °F 70% 29.96 in 10.0 mi NNE 4.6 mph - N/A   Overcast
6:56 PM 41.4 °F 37.6 °F 31.6 °F 68% 29.95 in 10.0 mi NNE 5.8 mph - N/A   Overcast
7:15 PM 41.5 °F 37.8 °F 30.9 °F 66% 29.95 in 10.0 mi NNE 5.8 mph - N/A   Overcast
7:35 PM 41.9 °F 40.0 °F 31.5 °F 66% 29.95 in 10.0 mi NNE 3.5 mph - N/A   Overcast
7:56 PM 41.9 °F 39.0 °F 32.0 °F 68% 29.95 in 10.0 mi NNE 4.6 mph - N/A   Overcast
8:15 PM 42.1 °F - 32.0 °F 67% 29.94 in 10.0 mi Calm Calm - N/A   Overcast
8:35 PM 42.1 °F - 32.0 °F 67% 29.94 in 10.0 mi Calm Calm - N/A   Overcast
8:56 PM 42.1 °F - 32.0 °F 67% 29.94 in 10.0 mi Calm Calm - N/A   Overcast
9:15 PM 42.1 °F - 32.0 °F 67% 29.94 in 10.0 mi Calm Calm - N/A   Overcast
9:36 PM 42.1 °F - 32.0 °F 67% 29.94 in 10.0 mi Calm Calm - N/A   Overcast
9:56 PM 41.9 °F - 32.4 °F 69% 29.93 in 10.0 mi Calm Calm - N/A   Overcast
10:15 PM 42.1 °F - 32.0 °F 67% 29.94 in 10.0 mi Calm Calm - N/A   Overcast
10:36 PM 41.9 °F - 32.7 °F 70% 29.93 in 10.0 mi Calm Calm - N/A   Overcast
10:55 PM 41.9 °F - 33.3 °F 71% 29.93 in 10.0 mi Calm Calm - N/A   Overcast
11:15 PM 42.8 °F - 34.3 °F 72% 29.93 in 10.0 mi Calm Calm - N/A   Overcast
11:36 PM 42.3 °F 40.5 °F 33.6 °F 71% 29.92 in 10.0 mi North 3.5 mph - N/A   Overcast
11:55 PM 42.4 °F - 34.5 °F 74% 29.92 in 10.0 mi Calm Calm - N/A   Overcast